EW7840 Centreville VA US current weather conditions

sailwx.info

Wind from 228

Air temperature 7.8° C
Dewpoint 0.0° C

Last reported at 2019-Dec-06 17:09 UTC.
Time now 2019-Dec-06 18:06 UTC

Location: N 38°51' W 077°29'.
View on Google Maps.

See reports from other nearby stations

  
Tides and Currents Weather Stations Pressure Air Temp Water Temp Dewpoint Dewpoint Depression Visibility Wind Speed Wind Dir Waves Ship Positions
date/time (UTC)wind fromknots sea level pressurealtimeterstation pressurevisibilityair tempwater tempwave heightnotes
2019-Dec-06 17:09 228 7.8
2019-Dec-06 17:04 221 7.8
2019-Dec-06 16:59 223 7.8
2019-Dec-06 16:54 202 7.2
2019-Dec-06 16:49 210 7.2
2019-Dec-06 16:44 229 7.2
2019-Dec-06 16:39 219 7.2
2019-Dec-06 16:34 230 7.2
2019-Dec-06 16:29 197 7.2
2019-Dec-06 16:24 216 7.2
2019-Dec-06 16:19 221 7.2
2019-Dec-06 16:14 219 7.2
2019-Dec-06 16:09 200 7.2
2019-Dec-06 16:04 220 7.2
2019-Dec-06 15:59 190 7.2
2019-Dec-06 15:54 215 7.2
2019-Dec-06 15:49 208 7.2
2019-Dec-06 15:44 257 7.2
2019-Dec-06 15:39 198 7.2
2019-Dec-06 15:34 223 7.2
2019-Dec-06 15:29 232 7.2
2019-Dec-06 15:24 231 7.2
2019-Dec-06 15:19 227 7.2
2019-Dec-06 15:14 223 7.2
2019-Dec-06 15:09 211 7.2
2019-Dec-06 15:04 200 7.2
2019-Dec-06 14:59 219 6.7
2019-Dec-06 14:54 215 6.7
2019-Dec-06 14:49 206 6.1
2019-Dec-06 14:44 236 6.1
2019-Dec-06 14:39 233 5.6
2019-Dec-06 14:34 237 5.6
2019-Dec-06 14:29 279 5.0
2019-Dec-06 14:24 217 5.0
2019-Dec-06 14:19 227 4.4
2019-Dec-06 14:14 224 4.4
2019-Dec-06 14:09 217 3.9
2019-Dec-06 14:04 207 3.9
2019-Dec-06 13:59 228 3.3
2019-Dec-06 13:54 235 3.3
2019-Dec-06 13:49 222 2.8
2019-Dec-06 13:44 222 2.8
2019-Dec-06 13:39 219 2.2
2019-Dec-06 13:34 222 1.7
2019-Dec-06 13:29 222 1.1
2019-Dec-06 13:24 225 0.6
2019-Dec-06 13:19 232 -0.6
2019-Dec-06 13:14 281 -1.1
2019-Dec-06 13:09 284 -1.7
2019-Dec-06 13:04 285 -2.2
2019-Dec-06 12:59 286 -2.2
2019-Dec-06 12:54 286 -2.2
2019-Dec-06 12:49 286 -2.2
2019-Dec-06 12:44 286 -2.8
2019-Dec-06 12:38 286 -2.8
2019-Dec-06 12:33 286 -2.8
2019-Dec-06 12:28 286 -2.8
2019-Dec-06 12:23 286 -2.2
2019-Dec-06 12:18 286 -2.2
2019-Dec-06 12:13 286 -2.2
2019-Dec-06 12:08 286 -2.2
2019-Dec-06 12:03 286 -2.2
2019-Dec-06 11:58 286 -2.2
2019-Dec-06 11:53 286 -2.2
2019-Dec-06 11:48 286 -2.2
2019-Dec-06 11:43 286 -2.2
2019-Dec-06 11:38 286 -2.2
2019-Dec-06 11:33 286 -2.2
2019-Dec-06 11:28 286 -1.7
2019-Dec-06 11:23 286 -1.7
2019-Dec-06 11:18 286 -1.7
2019-Dec-06 11:13 286 -1.7
2019-Dec-06 11:08 286 -1.7
2019-Dec-06 11:03 286 -1.7
2019-Dec-06 10:58 286 -1.7
2019-Dec-06 10:53 286 -1.7
2019-Dec-06 10:48 286 -1.7
2019-Dec-06 10:43 286 -1.7
2019-Dec-06 10:38 286 -1.7
2019-Dec-06 10:33 286 -1.7
2019-Dec-06 10:28 286 -1.7
2019-Dec-06 10:23 286 -1.7
2019-Dec-06 10:18 286 -1.1
2019-Dec-06 10:13 286 -1.1
2019-Dec-06 10:08 286 -1.1
2019-Dec-06 10:03 286 -1.1
2019-Dec-06 09:58 286 -0.6
2019-Dec-06 09:52 286 -0.6
2019-Dec-06 09:47 286 -0.6
2019-Dec-06 09:42 286 -0.6
2019-Dec-06 09:37 286 -0.6
2019-Dec-06 09:32 286 -0.6
2019-Dec-06 09:27 286 -0.6
2019-Dec-06 09:22 286 -0.6
2019-Dec-06 09:17 286 -1.1
2019-Dec-06 09:12 286 -1.1
2019-Dec-06 09:07 286 -1.1
2019-Dec-06 09:02 286 -1.1
2019-Dec-06 08:57 286 -1.1
2019-Dec-06 08:52 286 -1.1
2019-Dec-06 08:47 286 -1.1
2019-Dec-06 08:42 286 -1.1
2019-Dec-06 08:37 286 -1.1
2019-Dec-06 08:32 286 -1.1
2019-Dec-06 08:27 286 -1.1
2019-Dec-06 08:22 286 -0.6
2019-Dec-06 08:17 286 -0.6
2019-Dec-06 08:12 286 -0.6
2019-Dec-06 08:07 286 -0.6
2019-Dec-06 08:02 286 -0.6
2019-Dec-06 07:57 286 -0.6
2019-Dec-06 07:52 286 -0.6
2019-Dec-06 07:47 286 -0.0
2019-Dec-06 07:42 286 -0.0
2019-Dec-06 07:37 286 -0.0
2019-Dec-06 07:32 286 -0.0
2019-Dec-06 07:27 286 -0.0
2019-Dec-06 07:22 286 -0.0
2019-Dec-06 07:17 286 -0.0
2019-Dec-06 07:12 286 -0.0
2019-Dec-06 07:07 286 -0.0
2019-Dec-06 07:02 286 -0.0
2019-Dec-06 06:57 286 -0.0
2019-Dec-06 06:52 286 -0.0
2019-Dec-06 06:47 286 -0.0
2019-Dec-06 06:42 286 -0.0
2019-Dec-06 06:37 286 -0.0
2019-Dec-06 06:32 286 0.6
2019-Dec-06 06:17 286 -0.0
2019-Dec-06 06:12 286 -0.0
2019-Dec-06 06:07 286 -0.0
2019-Dec-06 06:02 286 -0.0
2019-Dec-06 05:57 286 -0.0
2019-Dec-06 05:52 286 -0.0
2019-Dec-06 05:47 286 -0.0
2019-Dec-06 05:42 286 -0.0
2019-Dec-06 05:37 286 -0.0
2019-Dec-06 05:31 286 -0.0
2019-Dec-06 05:26 286 -0.0
2019-Dec-06 05:21 286 -0.0
2019-Dec-06 05:16 286 -0.0
2019-Dec-06 05:11 286 -0.0
2019-Dec-06 05:06 286 -0.0
2019-Dec-06 05:01 286 -0.0
2019-Dec-06 04:56 286 -0.0
2019-Dec-06 04:51 286 -0.6
2019-Dec-06 04:46 286 -0.6
2019-Dec-06 04:41 286 -0.6
2019-Dec-06 04:36 286 -0.6
2019-Dec-06 04:31 286 -0.6
2019-Dec-06 04:26 286 -0.6
2019-Dec-06 04:21 286 -0.6
2019-Dec-06 04:16 286 -0.6
2019-Dec-06 04:11 286 -0.6
2019-Dec-06 04:06 286 -0.6
2019-Dec-06 04:01 286 -0.6
2019-Dec-06 03:56 286 -0.6
2019-Dec-06 03:51 286 -0.6
2019-Dec-06 03:46 286 -0.6
2019-Dec-06 03:41 286 -0.6
2019-Dec-06 03:36 286 -0.6
2019-Dec-06 03:31 286 -0.6
2019-Dec-06 03:26 286 -0.6
2019-Dec-06 03:21 286 -0.6
2019-Dec-06 03:16 286 -0.6
2019-Dec-06 03:11 286 -0.6
2019-Dec-06 03:06 286 -0.6
2019-Dec-06 03:01 286 -0.6
2019-Dec-06 02:56 286 -0.6
2019-Dec-06 02:51 286 -0.6
2019-Dec-06 02:46 286 -0.6
2019-Dec-06 02:41 286 -0.6
2019-Dec-06 02:36 286 -0.6
2019-Dec-06 02:31 286 -0.6
2019-Dec-06 02:26 286 -0.6
2019-Dec-06 02:21 286 -0.6
2019-Dec-06 02:16 286 -0.6
2019-Dec-06 02:11 286 -0.6
2019-Dec-06 02:06 286 -0.6
2019-Dec-06 02:01 286 -0.6
2019-Dec-06 01:55 286 -0.6
2019-Dec-06 01:50 286 -0.6
2019-Dec-06 01:45 286 -0.6
2019-Dec-06 01:40 286 -0.6
2019-Dec-06 01:35 286 -0.6
2019-Dec-06 01:30 286 -0.0
2019-Dec-06 01:25 286 -0.0
2019-Dec-06 01:20 286 -0.0
2019-Dec-06 01:15 286 -0.0
2019-Dec-06 01:10 286 -0.0
2019-Dec-06 01:05 286 -0.0
2019-Dec-06 01:00 286 0.6
2019-Dec-06 00:55 286 0.6
2019-Dec-06 00:50 286 0.6
2019-Dec-06 00:45 286 0.6
2019-Dec-06 00:40 286 0.6
2019-Dec-06 00:35 286 1.1
2019-Dec-06 00:30 286 1.1
2019-Dec-06 00:25 286 1.1
2019-Dec-06 00:20 286 1.7
2019-Dec-06 00:15 286 1.7
2019-Dec-06 00:10 286 1.7
2019-Dec-06 00:05 286 2.2
2019-Dec-06 00:00 286 2.2
2019-Dec-05 23:55 286 2.2
2019-Dec-05 23:50 286 2.8
2019-Dec-05 23:45 286 2.8
2019-Dec-05 23:40 286 3.3
2019-Dec-05 23:35 286 3.3
2019-Dec-05 23:30 286 3.9
2019-Dec-05 23:25 286 3.9
2019-Dec-05 23:20 286 4.4
2019-Dec-05 23:15 286 4.4
2019-Dec-05 23:10 286 4.4
2019-Dec-05 23:05 286 4.4
2019-Dec-05 23:00 204 5.0
2019-Dec-05 22:55 320 5.0
2019-Dec-05 22:50 288 5.0
2019-Dec-05 22:45 331 5.0
2019-Dec-05 22:40 333 5.6
2019-Dec-05 22:35 319 5.6
2019-Dec-05 22:30 338 5.6
2019-Dec-05 22:25 015 5.6
2019-Dec-05 22:20 350 5.6
2019-Dec-05 22:15 005 5.6
2019-Dec-05 22:10 013 5.6
2019-Dec-05 22:05 6.1
2019-Dec-05 22:00 317 6.1
2019-Dec-05 21:55 005 6.1
2019-Dec-05 21:49 011 6.1
2019-Dec-05 21:44 317 6.1
2019-Dec-05 21:39 026 6.1
2019-Dec-05 21:34 053 6.7
2019-Dec-05 21:29 323 6.7
2019-Dec-05 21:24 336 6.7
2019-Dec-05 21:19 263 6.7
2019-Dec-05 21:14 005 6.7
2019-Dec-05 21:09 350 7.2
2019-Dec-05 21:04 264 7.2
2019-Dec-05 20:59 340 7.2
2019-Dec-05 20:54 251 7.2
2019-Dec-05 20:49 355 7.8
2019-Dec-05 20:44 277 7.8
2019-Dec-05 20:39 292 7.8
2019-Dec-05 20:34 309 7.8
2019-Dec-05 20:29 063 8.3
2019-Dec-05 20:24 287 8.3
2019-Dec-05 20:19 303 8.3
2019-Dec-05 20:14 302 8.3
2019-Dec-05 20:09 028 8.3
2019-Dec-05 20:04 311 8.3
2019-Dec-05 19:59 290 8.9
2019-Dec-05 19:54 279 8.9
2019-Dec-05 19:49 330 8.9
2019-Dec-05 19:44 281 8.9
2019-Dec-05 19:39 331 8.9
2019-Dec-05 19:34 005 9.4
2019-Dec-05 19:29 020 9.4
2019-Dec-05 19:24 298 9.4
2019-Dec-05 19:19 276 9.4
2019-Dec-05 19:14 291 9.4
2019-Dec-05 19:09 308 9.4
2019-Dec-05 19:04 282 9.4
2019-Dec-05 18:59 347 9.4
2019-Dec-05 18:54 292 9.4
2019-Dec-05 18:49 015 9.4
2019-Dec-05 18:44 248 8.9
2019-Dec-05 18:39 301 8.9
2019-Dec-05 18:34 053 8.9
2019-Dec-05 18:29 300 8.9
2019-Dec-05 18:24 221 8.9
2019-Dec-05 18:19 262 8.9
2019-Dec-05 18:14 009 8.9
2019-Dec-05 18:09 303 8.9
2019-Dec-05 18:04 294 8.9
2019-Dec-05 17:59 341 8.9
2019-Dec-05 17:54 057 8.9
2019-Dec-05 17:49 312 8.9
2019-Dec-05 17:44 275 8.9
2019-Dec-05 17:39 250 8.9
2019-Dec-05 17:34 351 8.9
2019-Dec-05 17:29 288 8.3
2019-Dec-05 17:24 339 8.3
2019-Dec-05 17:19 246 8.3
2019-Dec-05 17:14 051 8.3
2019-Dec-05 17:09 058 8.3
2019-Dec-05 17:04 222 7.8
2019-Dec-05 16:59 028 7.8
2019-Dec-05 16:54 281 7.8
2019-Dec-05 16:48 338 7.8
2019-Dec-05 16:43 349 7.8
2019-Dec-05 16:39 285 7.8
2019-Dec-05 16:33 005 7.8
2019-Dec-05 16:28 313 7.8
2019-Dec-05 16:23 310 7.8
2019-Dec-05 16:18 341 7.8
2019-Dec-05 16:13 035 7.8
2019-Dec-05 16:08 296 7.2
2019-Dec-05 16:03 298 7.2
2019-Dec-05 15:58 292 7.2
2019-Dec-05 15:53 327 6.7
2019-Dec-05 15:48 332 6.7
2019-Dec-05 15:43 333 6.7
2019-Dec-05 15:38 103 6.7
2019-Dec-05 15:33 055 6.7
2019-Dec-05 15:28 355 6.7
2019-Dec-05 15:23 335 6.7
2019-Dec-05 15:18 331 6.7
2019-Dec-05 15:13 300 6.7
2019-Dec-05 15:08 329 6.7
2019-Dec-05 15:03 348 6.7
2019-Dec-05 14:58 310 6.7
2019-Dec-05 14:53 302 6.1
2019-Dec-05 14:48 286 6.1
2019-Dec-05 14:43 276 6.1
2019-Dec-05 14:38 329 5.6
2019-Dec-05 14:33 300 5.6
2019-Dec-05 14:28 324 5.6
2019-Dec-05 14:23 305 5.6
2019-Dec-05 14:18 228 5.6
2019-Dec-05 14:13 290 5.6
2019-Dec-05 14:08 301 5.6
2019-Dec-05 14:03 327 5.0
2019-Dec-05 13:58 343 5.0
2019-Dec-05 13:53 287 5.0
2019-Dec-05 13:48 261 4.4
2019-Dec-05 13:43 297 4.4
2019-Dec-05 13:38 275 4.4
2019-Dec-05 13:33 297 4.4
2019-Dec-05 13:28 355 4.4
2019-Dec-05 13:23 241 4.4
2019-Dec-05 13:18 327 3.9
2019-Dec-05 13:13 294 3.9
2019-Dec-05 13:08 300 3.9
2019-Dec-05 13:03 293 3.9
2019-Dec-05 12:58 298 3.3
2019-Dec-05 12:53 005 3.3
2019-Dec-05 12:48 3.3
2019-Dec-05 12:43 057 3.3
2019-Dec-05 12:38 005 3.3
2019-Dec-05 12:33 331 3.3
2019-Dec-05 12:28 061 3.3
2019-Dec-05 12:23 258 3.3
2019-Dec-05 12:18 298 3.3
2019-Dec-05 12:13 277 3.3
2019-Dec-05 12:08 280 3.3
2019-Dec-05 12:03 268 3.3
2019-Dec-05 11:58 267 3.3
2019-Dec-05 11:53 281 3.3
2019-Dec-05 11:48 324 3.3
2019-Dec-05 11:43 286 3.3
2019-Dec-05 11:38 285 3.3
2019-Dec-05 11:33 327 3.3
2019-Dec-05 11:28 348 3.3
2019-Dec-05 11:23 304 2.8
2019-Dec-05 11:18 321 2.8
2019-Dec-05 11:13 340 2.8
2019-Dec-05 11:08 355 2.8
2019-Dec-05 11:03 331 2.8
2019-Dec-05 10:57 289 2.8
2019-Dec-05 10:52 329 2.8
2019-Dec-05 10:47 289 2.8
2019-Dec-05 10:42 320 2.8
2019-Dec-05 10:37 339 3.3
2019-Dec-05 10:32 3.3
2019-Dec-05 10:27 340 3.3
2019-Dec-05 10:22 323 3.3
2019-Dec-05 10:17 333 3.3
2019-Dec-05 10:12 282 3.3
2019-Dec-05 10:07 271 3.3
2019-Dec-05 10:02 279 3.3
2019-Dec-05 09:57 344 3.3
2019-Dec-05 09:52 281 3.3
2019-Dec-05 09:47 355 3.3
2019-Dec-05 09:42 294 3.3
2019-Dec-05 09:37 257 3.3
2019-Dec-05 09:32 294 3.3
2019-Dec-05 09:27 342 3.3
2019-Dec-05 09:22 313 3.3
2019-Dec-05 09:17 019 3.3
2019-Dec-05 09:12 301 3.3
2019-Dec-05 09:07 278 3.3
2019-Dec-05 09:02 311 3.3
2019-Dec-05 08:57 038 3.3
2019-Dec-05 08:52 2.8
2019-Dec-05 08:47 009 2.8
2019-Dec-05 08:42 340 2.8
2019-Dec-05 08:37 280 2.8
2019-Dec-05 08:32 338 2.8
2019-Dec-05 08:27 015 3.3
2019-Dec-05 08:22 244 3.3
2019-Dec-05 08:17 288 3.3
2019-Dec-05 08:12 319 3.3
2019-Dec-05 08:07 239 3.3
2019-Dec-05 08:02 024 2.8
2019-Dec-05 07:57 280 2.8
2019-Dec-05 07:52 281 2.8
2019-Dec-05 07:47 284 2.8
2019-Dec-05 07:42 272 2.8
2019-Dec-05 07:37 255 2.8
2019-Dec-05 07:32 015 2.8
2019-Dec-05 07:27 231 2.8
2019-Dec-05 07:22 343 2.8
2019-Dec-05 07:17 005 2.8
2019-Dec-05 07:12 281 2.8
2019-Dec-05 07:07 297 2.8
2019-Dec-05 07:02 268 2.8
2019-Dec-05 06:57 272 2.8
2019-Dec-05 06:52 283 2.8
2019-Dec-05 06:47 313 3.3
2019-Dec-05 06:42 297 3.3
2019-Dec-05 06:37 241 3.3
2019-Dec-05 06:32 252 3.9
2019-Dec-05 06:27 321 3.9
2019-Dec-05 06:22 180 3.3
2019-Dec-05 06:17 267 3.3
2019-Dec-05 06:12 305 3.3
2019-Dec-05 06:07 302 2.8
2019-Dec-05 06:01 269 2.8
2019-Dec-05 05:57 259 2.8
2019-Dec-05 05:51 257 2.8
2019-Dec-05 05:46 250 2.8
2019-Dec-05 05:41 244 2.8
2019-Dec-05 05:36 272 2.8
2019-Dec-05 05:31 274 3.3
2019-Dec-05 05:26 274 3.3
2019-Dec-05 05:21 275 3.3
2019-Dec-05 05:16 273 3.3
2019-Dec-05 05:11 274 3.3
2019-Dec-05 05:06 275 3.9
2019-Dec-05 05:01 275 3.9
2019-Dec-05 04:56 257 3.9
2019-Dec-05 04:51 282 3.9
2019-Dec-05 04:46 284 3.9
2019-Dec-05 04:41 284 4.4
2019-Dec-05 04:36 290 4.4
2019-Dec-05 04:31 262 4.4
2019-Dec-05 04:26 273 4.4
2019-Dec-05 04:21 265 4.4
2019-Dec-05 04:16 270 4.4
2019-Dec-05 04:11 157 4.4
2019-Dec-05 04:06 005 3.9
2019-Dec-05 04:01 338 3.3
2019-Dec-05 03:56 072 2.8
2019-Dec-05 03:51 288 2.2
2019-Dec-05 03:46 288 2.2
2019-Dec-05 03:41 248 2.2
2019-Dec-05 03:36 248 2.2
2019-Dec-05 03:31 348 2.2
2019-Dec-05 03:26 348 2.2
2019-Dec-05 03:21 348 2.2
2019-Dec-05 03:16 348 2.2
2019-Dec-05 03:11 348 2.2
2019-Dec-05 03:06 348 2.2
2019-Dec-05 03:01 348 2.2
2019-Dec-05 02:56 348 2.8
2019-Dec-05 02:51 348 2.8
2019-Dec-05 02:46 348 2.8
2019-Dec-05 02:41 348 3.3
2019-Dec-05 02:36 348 3.3
2019-Dec-05 02:31 349 3.9
2019-Dec-05 02:26 355 3.9
2019-Dec-05 02:21 355 3.9
2019-Dec-05 02:16 355 3.9
2019-Dec-05 02:11 355 3.9
2019-Dec-05 02:06 355 3.9
2019-Dec-05 02:01 355 3.9
2019-Dec-05 01:56 355 3.9
2019-Dec-05 01:51 317 3.9
2019-Dec-05 01:46 317 3.9
2019-Dec-05 01:41 316 3.9
2019-Dec-05 01:36 316 3.9
2019-Dec-05 01:31 315 4.4
2019-Dec-05 01:25 315 4.4
2019-Dec-05 01:20 315 4.4
2019-Dec-05 01:15 315 4.4
2019-Dec-05 01:10 315 5.0
2019-Dec-05 01:05 315 5.0
2019-Dec-05 01:00 315 5.0
2019-Dec-05 00:55 315 5.6
2019-Dec-05 00:50 316 5.6
2019-Dec-05 00:45 355 5.6
2019-Dec-05 00:40 302 5.6
2019-Dec-05 00:35 327 5.6
2019-Dec-05 00:30 324 5.6
2019-Dec-05 00:25 330 5.6
2019-Dec-05 00:20 281 6.1
2019-Dec-05 00:15 277 6.1
2019-Dec-05 00:10 333 6.1
2019-Dec-05 00:05 338 6.1
2019-Dec-05 00:00 323 6.7
2019-Dec-04 23:55 350 6.7
2019-Dec-04 23:50 300 6.7
2019-Dec-04 23:45 321 6.7
2019-Dec-04 23:40 331 6.7
2019-Dec-04 23:35 271 6.7
2019-Dec-04 23:30 277 6.7
2019-Dec-04 23:25 294 6.7
2019-Dec-04 23:20 305 6.7
2019-Dec-04 23:15 269 6.7
2019-Dec-04 23:05 304 7.2
2019-Dec-04 23:00 339 7.2
2019-Dec-04 22:55 330 7.2
2019-Dec-04 22:50 257 7.2
2019-Dec-04 22:45 294 7.2
2019-Dec-04 22:40 306 7.8
2019-Dec-04 22:35 298 7.8
2019-Dec-04 22:30 323 7.8
2019-Dec-04 22:25 298 7.8
2019-Dec-04 22:20 300 7.8
2019-Dec-04 22:15 288 7.8
2019-Dec-04 22:10 293 8.3
2019-Dec-04 22:05 355 8.3
2019-Dec-04 22:00 281 8.3
2019-Dec-04 21:55 298 8.3
2019-Dec-04 21:50 304 8.3
2019-Dec-04 21:45 355 8.9
2019-Dec-04 21:40 005 8.9
2019-Dec-04 21:34 348 8.9
2019-Dec-04 21:29 330 8.9
2019-Dec-04 21:24 334 8.9
2019-Dec-04 21:19 287 8.9
2019-Dec-04 21:14 289 8.9
2019-Dec-04 21:09 249 8.9
2019-Dec-04 21:04 247 8.9
2019-Dec-04 20:59 248 8.9
2019-Dec-04 20:54 252 8.9
2019-Dec-04 20:49 255 8.9
2019-Dec-04 20:44 257 8.9
2019-Dec-04 20:39 260 8.9
2019-Dec-04 20:34 260 8.9
2019-Dec-04 20:29 260 8.9
2019-Dec-04 20:24 260 8.9
2019-Dec-04 20:19 260 8.9
2019-Dec-04 20:14 260 8.9
2019-Dec-04 20:09 260 8.9
2019-Dec-04 20:04 260 8.9
2019-Dec-04 19:59 234 8.9
2019-Dec-04 19:54 228 9.4
2019-Dec-04 19:49 213 9.4
2019-Dec-04 19:44 267 9.4
2019-Dec-04 19:39 254 9.4
2019-Dec-04 19:34 262 9.4
2019-Dec-04 19:29 242 9.4
2019-Dec-04 19:24 262 10.0
2019-Dec-04 19:19 220 10.0
2019-Dec-04 19:14 243 10.0
2019-Dec-04 19:09 266 10.0
2019-Dec-04 19:04 139 10.0
2019-Dec-04 18:59 249 10.0
2019-Dec-04 18:54 221 10.6
2019-Dec-04 18:49 212 10.6
2019-Dec-04 18:44 224 10.0
2019-Dec-04 18:39 239 10.0
2019-Dec-04 18:34 225 10.0
2019-Dec-04 18:29 202 9.4
2019-Dec-04 18:24 203 9.4
2019-Dec-04 18:19 278 8.9
2019-Dec-04 18:14 221 8.3
2019-Dec-04 18:09 276 8.3
2019-Dec-04 18:04 262 8.3